Regional Weather Roundup
Issued by NWS New Orleans/Baton Rouge, LA

Home | Current Version | Previous Version | Text Only | Print | Product List | Glossary On
Versions: 1 2 3 4 5 6 7 8 9 10 11 12 13 14 15 16 17 18 19 20 21 22 23 24 25 26 27 28 29 30 31 32 33 34 35 36 37 38 39 40 41 42 43 44 45 46 47 48 49 50
000
ASUS44 KLIX 201510
RWRLIX
NEW ORLEANS REGIONAL WEATHER ROUNDUP
NATIONAL WEATHER SERVICE NEW ORLEANS LA
900 AM CST SAT DEC 20 2014

NOTE: "FAIR" INDICATES FEW OR NO CLOUDS BELOW 12,000 FEET WITH NO
      SIGNIFICANT WEATHER AND/OR OBSTRUCTIONS TO VISIBILITY.
      SKY/WX - SKY CONDITION AND SIGNIFICANT WEATHER.
      TMP - AIR TEMPERATURE.     DP    - DEWPOINT TEMPERATURE.
      RH  - RELATIVE HUMIDITY.   PRES  - PRESSURE.
      HI  - HEAT INDEX.          WCI   - WIND CHILL INDEX.

*  THESE STATIONS ARE NOT NWS OR FAA STATIONS AND ARE NOT UNDER
   NWS QUALITY CONTROL.

LAZ038-040-048-061>063-065>067-069-201600-
SOUTHEAST LOUISIANA

CITY           SKY/WX    TMP DP  RH WIND       PRES   REMARKS
N.O. AUDUBON     N/A     51  50  95 MISG        N/A
N.O. INTL ARPT CLOUDY    51  48  89 NE14      30.15R
N.O. LAKEFRONT CLOUDY    53  48  83 NE14      30.15R
N.O. DOWNTOWN* CLOUDY    52  45  76 N7        30.15R
SLIDELL        CLOUDY    50  46  86 NE14      30.15R
BATON ROUGE    CLOUDY    49  45  86 N7        30.17R
BOOTHVILLE     CLOUDY    54  52  93 NE14G23   30.11R
BELLE CHASSE   CLOUDY    51  48  89 NE12      30.13R
BOGALUSA*        N/A     49  45  85 N7        30.19R
GALLIANO*      CLOUDY    54  52  94 MISG      30.13R
NEW ROADS*     CLOUDY    47  46  96 N10       30.18S
GONZALES*      CLOUDY    49  49 100 MISG      30.16R
HAMMOND*       NOT AVBL
HOUMA*         CLOUDY    50  48  93 NE10      30.14R FOG
PORT FOURCHON* CLOUDY    54  52  94 NE15G23   30.14S

$$

MSZ070-080>082-201600-
SOUTHERN MISSISSIPPI

CITY           SKY/WX    TMP DP  RH WIND       PRES   REMARKS
MCCOMB         CLOUDY    45  43  93 NE8       30.19R
GULFPORT       CLOUDY    49  46  90 N12       30.14R
BILOXI         CLOUDY    49  49 100 NE13      30.14R
PASCAGOULA     CLOUDY    48  46  93 N9        30.15R FOG

$$

COASTAL OBSERVATIONS
LAKE AND NEARSHORE STATIONS

STATION/POSITION TIME  TEMP    WIND        PRES    WAVE
                       AIR SEA DIR/SP/G            HT/PER
                 (UTC) (F)     (DEG/KT/KT) (MB)    (FT/S)
PASCAGOULA       1500   48      30/ 10/ 15 1019.9
WAVELAND YACHT   1500   49      40/ 10/ 12 1019.8
GRAND ISLE       1500   53 61   40/ 10/ 17 1020.0
SOUTHWEST PASS   1500   57                 1019.0
NEW CANAL        1500   51 56   30/ 13/ 15 1021.0
SHELL BEACH      1500   51 57   40/ 16/ 18 1020.2

OFFSHORE STATIONS

STATION/POSITION TIME  TEMP    WIND        PRES    WAVE
                       AIR SEA DIR/SP/G            HT/PER
                 (UTC) (F)     (DEG/KT/KT) (MB)    (FT/S)
64 S DAUPHIN ISL 1500   62 74   20/ 27/ 33 1016.8    7/ 6

$$




USA.gov is the U.S. government's official web portal to all federal, state and local government web resources and services.